Hourly Weather Ruchocice

Today, 20 April, Tuesday

Time Temperature Precipitation Wind Pressure Humidity
00:00 +8°C° 0 mm 2 mps 753 mmHg 86%
01:00 +8°C° 0 mm 1 mps 753 mmHg 87%
02:00 +8°C° 0 mm 1 mps 753 mmHg 87%
03:00 +8°C° 0 mm 1 mps 753 mmHg 87%
04:00 +8°C° 0 mm 1 mps 753 mmHg 87%
05:00 +9°C° 0 mm 1 mps 753 mmHg 84%
06:00 +10°C° 0 mm 1 mps 753 mmHg 82%
07:00 +11°C° 0 mm 1 mps 753 mmHg 79%
08:00 +12°C° 0.1 mm 1 mps 753 mmHg 73%
09:00 +13°C° 0.1 mm 1 mps 753 mmHg 66%
10:00 +15°C° 0.1 mm 2 mps 753 mmHg 59%
11:00 +16°C° 0.1 mm 2 mps 753 mmHg 55%
12:00 +16°C° 0.1 mm 2 mps 752 mmHg 51%
13:00 +17°C° 0.1 mm 2 mps 752 mmHg 47%
14:00 +17°C° 0.1 mm 2 mps 752 mmHg 49%
15:00 +17°C° 0.1 mm 2 mps 751 mmHg 52%
16:00 +16°C° 0.1 mm 2 mps 751 mmHg 54%
17:00 +15°C° 0.2 mm 2 mps 751 mmHg 59%
18:00 +14°C° 0.2 mm 2 mps 751 mmHg 65%
19:00 +12°C° 0.2 mm 2 mps 751 mmHg 70%
20:00 +10°C° 0 mm 2 mps 751 mmHg 73%
21:00 +10°C° 0 mm 2 mps 751 mmHg 76%
22:00 +9°C° 0 mm 2 mps 751 mmHg 79%
23:00 +8°C° 0 mm 2 mps 751 mmHg 81%

Tomorrow, 21 April, Wednesday

Time Temperature Precipitation Wind Pressure Humidity
00:00 +8°C° 0 mm 2 mps 751 mmHg 84%
01:00 +7°C° 0 mm 2 mps 751 mmHg 86%
02:00 +5°C° 0 mm 3 mps 751 mmHg 87%
03:00 +5°C° 0 mm 3 mps 750 mmHg 88%
04:00 +4°C° 0 mm 3 mps 750 mmHg 88%
05:00 +5°C° 0 mm 3 mps 751 mmHg 84%
06:00 +7°C° 0 mm 3 mps 751 mmHg 80%
07:00 +7°C° 0 mm 3 mps 751 mmHg 75%
08:00 +9°C° 0 mm 3 mps 751 mmHg 70%
09:00 +11°C° 0 mm 4 mps 751 mmHg 64%
10:00 +12°C° 0 mm 4 mps 751 mmHg 59%
11:00 +13°C° 0 mm 4 mps 751 mmHg 54%
12:00 +14°C° 0 mm 4 mps 750 mmHg 49%
13:00 +15°C° 0 mm 4 mps 750 mmHg 44%
14:00 +15°C° 0 mm 4 mps 750 mmHg 46%
15:00 +14°C° 0 mm 3 mps 750 mmHg 49%
16:00 +14°C° 0 mm 3 mps 749 mmHg 51%
17:00 +13°C° 0 mm 3 mps 749 mmHg 55%
18:00 +12°C° 0 mm 3 mps 749 mmHg 58%
19:00 +11°C° 0 mm 3 mps 749 mmHg 61%
20:00 +9°C° 0 mm 3 mps 750 mmHg 69%
21:00 +7°C° 0 mm 4 mps 750 mmHg 78%
22:00 +5°C° 0 mm 4 mps 751 mmHg 86%
23:00 +5°C° 0.1 mm 4 mps 751 mmHg 85%

Day after tomorrow, 22 April, Thursday

Time Temperature Precipitation Wind Pressure Humidity
00:00 +4°C° 0.1 mm 4 mps 751 mmHg 84%
01:00 +4°C° 0.1 mm 4 mps 751 mmHg 82%
02:00 +3°C° 0 mm 4 mps 751 mmHg 82%
03:00 +1°C° 0 mm 5 mps 751 mmHg 81%
04:00 0°C° 0 mm 5 mps 751 mmHg 80%
05:00 +1°C° 0 mm 6 mps 752 mmHg 77%
06:00 +1°C° 0 mm 6 mps 752 mmHg 74%
07:00 +1°C° 0 mm 6 mps 752 mmHg 72%
08:00 +2°C° 0 mm 7 mps 752 mmHg 67%
09:00 +3°C° 0 mm 7 mps 752 mmHg 62%
10:00 +4°C° 0 mm 7 mps 752 mmHg 57%
11:00 +4°C° 0.1 mm 7 mps 752 mmHg 58%
12:00 +5°C° 0.1 mm 8 mps 752 mmHg 59%
13:00 +5°C° 0.1 mm 8 mps 752 mmHg 60%
14:00 +5°C° 0.4 mm 7 mps 752 mmHg 65%
15:00 +5°C° 0.4 mm 6 mps 752 mmHg 69%
16:00 +5°C° 0.4 mm 5 mps 752 mmHg 73%
17:00 +5°C° 0.4 mm 5 mps 752 mmHg 77%
18:00 +4°C° 0.4 mm 4 mps 753 mmHg 80%
19:00 +3°C° 0.4 mm 3 mps 753 mmHg 84%
20:00 +3°C° 0 mm 3 mps 753 mmHg 85%
21:00 +2°C° 0 mm 3 mps 753 mmHg 86%
22:00 +1°C° 0 mm 3 mps 753 mmHg 87%
23:00 0°C° 0 mm 4 mps 753 mmHg 86%

23 April, Friday

Time Temperature Precipitation Wind Pressure Humidity
00:00 0°C° 0 mm 5 mps 754 mmHg 85%
01:00 0°C° 0 mm 5 mps 754 mmHg 84%
02:00 0°C° 0 mm 5 mps 754 mmHg 84%
03:00 -1°C° 0 mm 6 mps 754 mmHg 83%
04:00 -1°C° 0 mm 6 mps 755 mmHg 83%
05:00 -1°C° 0 mm 6 mps 755 mmHg 82%
06:00 +1°C° 0 mm 6 mps 756 mmHg 81%
07:00 +1°C° 0 mm 6 mps 756 mmHg 80%
08:00 +3°C° 0 mm 6 mps 756 mmHg 71%
09:00 +4°C° 0 mm 6 mps 757 mmHg 61%
10:00 +6°C° 0 mm 7 mps 757 mmHg 52%
11:00 +8°C° 0.1 mm 7 mps 757 mmHg 48%
12:00 +8°C° 0.1 mm 7 mps 757 mmHg 45%
13:00 +9°C° 0.1 mm 7 mps 757 mmHg 41%
14:00 +9°C° 0 mm 6 mps 757 mmHg 40%
15:00 +9°C° 0 mm 6 mps 758 mmHg 39%
16:00 +9°C° 0 mm 5 mps 758 mmHg 38%
17:00 +8°C° 0 mm 4 mps 758 mmHg 43%
18:00 +8°C° 0 mm 3 mps 758 mmHg 48%
19:00 +7°C° 0 mm 1 mps 758 mmHg 53%
20:00 +6°C° 0 mm 2 mps 758 mmHg 55%
21:00 +6°C° 0 mm 2 mps 758 mmHg 58%
22:00 +5°C° 0 mm 3 mps 758 mmHg 60%
23:00 +4°C° 0 mm 3 mps 758 mmHg 65%

24 April, Saturday

Time Temperature Precipitation Wind Pressure Humidity
00:00 +4°C° 0 mm 3 mps 757 mmHg 70%
01:00 +4°C° 0 mm 3 mps 757 mmHg 76%
02:00 +4°C° 0 mm 3 mps 757 mmHg 79%
03:00 +3°C° 0 mm 4 mps 757 mmHg 83%
04:00 +3°C° 0 mm 4 mps 757 mmHg 86%
05:00 +3°C° 0 mm 4 mps 757 mmHg 84%
06:00 +3°C° 0 mm 5 mps 757 mmHg 83%
07:00 +3°C° 0 mm 5 mps 757 mmHg 81%
08:00 +4°C° 0 mm 6 mps 757 mmHg 74%
09:00 +5°C° 0 mm 6 mps 757 mmHg 67%
10:00 +8°C° 0 mm 6 mps 757 mmHg 60%
11:00 +8°C° 0 mm 6 mps 757 mmHg 59%
12:00 +8°C° 0 mm 6 mps 757 mmHg 57%
13:00 +9°C° 0 mm 6 mps 757 mmHg 56%
14:00 +9°C° 0 mm 6 mps 757 mmHg 57%
15:00 +8°C° 0 mm 6 mps 757 mmHg 58%
16:00 +8°C° 0 mm 6 mps 757 mmHg 59%
17:00 +7°C° 0 mm 5 mps 757 mmHg 63%
18:00 +6°C° 0 mm 4 mps 758 mmHg 67%
19:00 +5°C° 0 mm 3 mps 758 mmHg 71%
20:00 +4°C° 0 mm 3 mps 758 mmHg 72%
21:00 +3°C° 0 mm 3 mps 759 mmHg 72%
22:00 +1°C° 0 mm 3 mps 759 mmHg 72%
23:00 +2°C° 0 mm 2 mps 759 mmHg 70%

25 April, Sunday

Time Temperature Precipitation Wind Pressure Humidity
00:00 +1°C° 0 mm 2 mps 759 mmHg 68%
01:00 -1°C° 0 mm 2 mps 760 mmHg 66%
02:00 -1°C° 0 mm 2 mps 760 mmHg 67%
03:00 -1°C° 0 mm 2 mps 760 mmHg 67%
04:00 -2°C° 0 mm 2 mps 760 mmHg 68%
05:00 +1°C° 0 mm 2 mps 760 mmHg 65%
06:00 +2°C° 0 mm 2 mps 761 mmHg 62%
07:00 +4°C° 0 mm 2 mps 761 mmHg 59%
08:00 +5°C° 0 mm 3 mps 761 mmHg 52%
09:00 +7°C° 0 mm 3 mps 761 mmHg 45%
10:00 +8°C° 0 mm 4 mps 761 mmHg 38%
11:00 +10°C° 0 mm 4 mps 761 mmHg 37%
12:00 +10°C° 0 mm 4 mps 761 mmHg 36%
13:00 +11°C° 0 mm 4 mps 761 mmHg 35%
14:00 +11°C° 0 mm 4 mps 761 mmHg 36%
15:00 +10°C° 0 mm 5 mps 761 mmHg 36%
16:00 +10°C° 0 mm 5 mps 761 mmHg 36%
17:00 +8°C° 0 mm 4 mps 761 mmHg 42%
18:00 +6°C° 0 mm 4 mps 761 mmHg 48%
19:00 +4°C° 0 mm 3 mps 761 mmHg 54%
20:00 +3°C° 0 mm 3 mps 761 mmHg 54%
21:00 +3°C° 0 mm 2 mps 761 mmHg 55%
22:00 +2°C° 0 mm 2 mps 761 mmHg 55%
23:00 +2°C° 0 mm 2 mps 761 mmHg 56%
Show more